User: anonymous   Login
Location: Newark
(48.8833°N, 0.9236°W)
Time: 10:30:24
(UTC+00:00)
Language:

Vanguard 2 Rocket - Orbit

View from above orbital plane
View from above orbital plane
View from above satellite
View from above satellite

Ground track
Ground track

The orbit data is extracted from the following two-line orbital elements,

1    12U 59001B   19324.49523930 +.00000038 +00000-0 +29316-4 0  9998
2    12 032.9012 005.5337 1666050 052.1047 321.8852 11.44315193255922
Epoch (UTC): 20 November 2019 11:53:08
Eccentricity: 0.1666050
inclination: 32.9012°
perigee height: 554 km
apogee height: 3326 km
right ascension of ascending node: 5.5337°
argument of perigee: 52.1047°
revolutions per day: 11.44315193
mean anomaly at epoch: 321.8852°
orbit number at epoch: 25592

The dashed part of the orbit path shows where the satellite is in the earth's shadow,  

DLR